| time (UTC) | temp C | wind direction | speed KPH | gust KPH | rain 1hr cm | rain 24hr cm | rain mn cm | humidity % | barometer mb |
| 20260503171514 | 7 | 17 | 19.3 | 35.4 | 0.03 | 2.13 | 1.50 | 84 | 1003.4 |
| 20260503081509 | 8 | 18 | 14.5 | 25.7 | 0.08 | 1.55 | 0.91 | 91 | 1004.6 |
| 20260503071611 | 8 | 329 | 11.3 | 22.5 | 0.15 | 1.45 | 0.84 | 91 | 1005.1 |
| 20260503071505 | 8 | 327 | 11.3 | 22.5 | 0.18 | 1.45 | 0.84 | 91 | 1005.2 |
| 20260503054557 | 8 | 355 | 4.8 | 9.7 | 0.36 | 1.24 | 0.61 | 91 | 1006.3 |
| 20260503053044 | 8 | 355 | 0.0 | 12.9 | 0.38 | 1.19 | 0.56 | 91 | 1006.6 |
| 20260503051540 | 8 | 360 | 6.4 | 14.5 | 0.36 | 1.09 | 0.46 | 91 | 1006.9 |
| 20260503050044 | 8 | 324 | 4.8 | 9.7 | 0.36 | 0.99 | 0.36 | 91 | 1007.4 |
| 20260503044545 | 9 | 331 | 3.2 | 8.0 | 0.30 | 0.89 | 0.25 | 91 | 1007.7 |
| 20260503043043 | 9 | 258 | 0.0 | 0.0 | 0.28 | 0.81 | 0.18 | 91 | 1007.8 |
| 20260503041530 | 9 | 258 | 0.0 | 0.0 | 0.25 | 0.71 | 0.10 | 91 | 1007.9 |
| 20260503040032 | 9 | 257 | 0.0 | 0.0 | 0.23 | 0.64 | 0.00 | 91 | 1008.1 |
| 20260503034526 | 9 | 257 | 0.0 | 0.0 | 0.23 | 0.58 | 0.58 | 91 | 1008.2 |
| 20260503033026 | 9 | 257 | 0.0 | 0.0 | 0.28 | 0.53 | 0.53 | 91 | 1008.2 |
| 20260503031528 | 9 | 257 | 0.0 | 1.6 | 0.30 | 0.48 | 0.48 | 91 | 1008.4 |
| 20260503030025 | 8 | 257 | 0.0 | 0.0 | 0.28 | 0.41 | 0.41 | 90 | 1008.5 |
| 20260503024521 | 8 | 257 | 0.0 | 3.2 | 0.28 | 0.36 | 0.36 | 90 | 1008.7 |
| 20260503023020 | 8 | 257 | 0.0 | 0.0 | 0.20 | 0.25 | 0.25 | 90 | 1008.8 |
| 20260503021517 | 8 | 257 | 0.0 | 0.0 | 0.15 | 0.18 | 0.18 | 90 | 1009.1 |
| 20260503020016 | 8 | 257 | 0.0 | 1.6 | 0.10 | 0.13 | 0.13 | 90 | 1009.3 |
| 20260503014514 | 8 | 223 | 0.0 | 0.0 | 0.08 | 0.08 | 0.08 | 89 | 1009.4 |
| 20260503013014 | 8 | 198 | 1.6 | 4.8 | 0.05 | 0.05 | 0.05 | 89 | 1009.6 |
| 20260503011513 | 8 | 180 | 1.6 | 8.0 | 0.03 | 0.03 | 0.03 | 89 | 1009.6 |
| 20260503010013 | 9 | 207 | 1.6 | 6.4 | 0.03 | 0.03 | 0.03 | 88 | 1009.6 |
| 20260503004513 | 9 | 211 | 0.0 | 6.4 | 0.00 | 0.00 | 0.00 | 88 | 1009.7 |
| 20260503003012 | 9 | 219 | 1.6 | 8.0 | 0.00 | 0.00 | 0.00 | 87 | 1009.7 |
| 20260503001511 | 9 | 180 | 4.8 | 11.3 | 0.00 | 0.00 | 0.00 | 87 | 1009.6 |
| 20260503000019 | 9 | 227 | 0.0 | 6.4 | 0.00 | 0.00 | 0.00 | 86 | 1009.6 |
| 20260502234510 | 9 | 186 | 1.6 | 9.7 | 0.00 | 0.00 | 0.00 | 84 | 1009.6 |
| 20260502233009 | 9 | 227 | 0.0 | 9.7 | 0.00 | 0.00 | 0.00 | 82 | 1009.4 |
| 20260502231508 | 9 | 221 | 3.2 | 9.7 | 0.00 | 0.00 | 0.00 | 81 | 1009.5 |
| 20260502230010 | 9 | 183 | 4.8 | 12.9 | 0.00 | 0.00 | 0.00 | 81 | 1009.5 |
| 20260502224507 | 9 | 190 | 4.8 | 9.7 | 0.00 | 0.00 | 0.00 | 80 | 1009.7 |
| 20260502223020 | 9 | 188 | 4.8 | 11.3 | 0.00 | 0.00 | 0.00 | 80 | 1009.4 |
| 20260502221505 | 9 | 203 | 3.2 | 9.7 | 0.00 | 0.00 | 0.00 | 80 | 1009.6 |
| 20260502220006 | 9 | 178 | 1.6 | 8.0 | 0.00 | 0.00 | 0.00 | 79 | 1009.6 |
| 20260502214504 | 10 | 184 | 3.2 | 11.3 | 0.00 | 0.00 | 0.00 | 78 | 1009.7 |
| 20260502213002 | 11 | 175 | 3.2 | 14.5 | 0.00 | 0.00 | 0.00 | 73 | 1009.8 |
| 20260502211504 | 11 | 186 | 1.6 | 16.1 | 0.00 | 0.00 | 0.00 | 73 | 1009.8 |
| 20260502210002 | 11 | 192 | 8.0 | 17.7 | 0.00 | 0.00 | 0.00 | 71 | 1009.9 |
| 20260502204601 | 11 | 231 | 4.8 | 16.1 | 0.00 | 0.00 | 0.00 | 70 | 1010.0 |
| 20260502203058 | 11 | 174 | 6.4 | 16.1 | 0.00 | 0.00 | 0.00 | 65 | 1010.0 |
| 20260502201559 | 11 | 212 | 8.0 | 19.3 | 0.00 | 0.00 | 0.00 | 61 | 1010.5 |
| 20260502200122 | 11 | 219 | 4.8 | 19.3 | 0.00 | 0.00 | 0.00 | 58 | 1010.2 |
| 20260502194555 | 11 | 231 | 8.0 | 19.3 | 0.00 | 0.00 | 0.00 | 58 | 1010.3 |
| 20260502193054 | 11 | 182 | 9.7 | 16.1 | 0.00 | 0.00 | 0.00 | 61 | 1010.6 |
| 20260502191600 | 11 | 260 | 9.7 | 24.1 | 0.00 | 0.00 | 0.00 | 64 | 1010.7 |
| 20260502190056 | 12 | 203 | 6.4 | 16.1 | 0.00 | 0.00 | 0.00 | 63 | 1010.9 |
| 20260502184551 | 12 | 210 | 6.4 | 16.1 | 0.00 | 0.00 | 0.00 | 59 | 1011.1 |
| 20260502183051 | 12 | 171 | 4.8 | 16.1 | 0.00 | 0.00 | 0.00 | 60 | 1011.1 |
| 20260502181549 | 12 | 198 | 6.4 | 19.3 | 0.00 | 0.00 | 0.00 | 69 | 1011.2 |